This demonstration page uses our WeatherBlox Daily Observations layout. Learn more.

Left ArrowRight Arrow

38.20091, -84.87328

Hourly Observations for July 15, 2018

Temp ( °F °C ) Dew Point ( °F °C ) Humidity (%) Winds ( mph kmh ) Pressure ( in mb ) Visibility ( mi km ) Precip ( " mm )
12:53 am 00:53 Clear 73 22.8 69 20.6 87 87 Calm 30.01 1016 10 16 0.00 0.00
1:53 am 01:53 Clear 74 23.3 68 20 82 82 ESE 3 6 30.01 1016 10 16 0.00 0.00
2:53 am 02:53 Clear 72 22.2 67 19.4 84 84 Calm 29.99 1016 10 16 0.00 0.00
3:53 am 03:53 Clear 70 21.1 67 19.4 90 90 Calm 30.00 1016 10 16 0.00 0.00
4:53 am 04:53 Clear 72 22.2 68 20 87 87 Calm 30.00 1016 10 16 0.00 0.00
5:53 am 05:53 Partly Cloudy 73 22.8 67 19.4 81 81 Calm 30.01 1016 10 16 0.00 0.00
6:53 am 06:53 Mostly Sunny 73 22.8 67 19.4 81 81 SSE 3 6 30.02 1017 10 16 0.00 0.00
7:53 am 07:53 Mostly Sunny 74 23.3 68 20 82 82 Calm 30.02 1017 10 16 0.00 0.00
8:27 am 08:27 Cloudy with Nearby Thunderstorms 75 23.9 69 20.6 82 82 WSW 5 7 30.03 1017 10 16 0.00 0.00
8:44 am 08:44 Mostly Cloudy 76 24.4 70 21.1 82 82 SW 8 13 30.03 1017 10 16 0.00 0.00
8:53 am 08:53 Mostly Cloudy 76 24.4 69 20.6 79 79 WSW 8 13 30.03 1017 10 16 0.00 0.00
9:04 am 09:04 Mostly Cloudy 76 24.4 69 20.6 79 79 WSW 7 11 30.03 1017 10 16 0.00 0.00
9:53 am 09:53 Mostly Cloudy 78 25.6 71 21.7 79 79 SW 6 9 30.03 1017 10 16 0.00 0.03
10:09 am 10:09 Partly Cloudy 80 26.7 72 22.2 76 76 SW 7 11 30.03 1017 10 16 0.00 0.00
10:53 am 10:53 Partly Cloudy 81 27.2 71 21.7 72 72 Calm 30.00 1016 10 16 0.00 0.00
11:53 am 11:53 Sunny 81 27.2 72 22.2 74 74 VRB 3 6 30.02 1017 10 16 0.00 0.00
12:53 pm 12:53 Sunny 82 27.8 71 21.7 69 69 SW 5 7 30.02 1017 10 16 0.00 0.00
1:53 pm 13:53 Cloudy with Light Rain 80 26.7 74 23.3 82 82 WSW 7 11 30.03 1017 5 8 0.00 0.03
2:53 pm 14:53 Cloudy 80 26.7 74 23.3 82 82 SW 5 7 30.01 1016 10 16 0.02 0.51
3:53 pm 15:53 Sunny 81 27.2 74 23.3 79 79 NW 5 7 29.99 1016 10 16 0.00 0.00
4:53 pm 16:53 Mostly Sunny 83 28.3 73 22.8 72 72 VRB 3 6 29.99 1016 10 16 0.00 0.00
5:53 pm 17:53 Mostly Sunny 83 28.3 74 23.3 74 74 WSW 5 7 29.98 1015 10 16 0.00 0.00
6:41 pm 18:41 Mostly Cloudy 83 28.3 74 23.3 74 74 Calm 29.97 1015 10 16 0.00 0.00
6:53 pm 18:53 Mostly Cloudy 83 28.3 74 23.3 74 74 SW 3 6 29.97 1015 10 16 0.00 0.00
7:53 pm 19:53 Mostly Cloudy 82 27.8 73 22.8 74 74 SW 7 11 29.96 1015 10 16 0.00 0.00
8:53 pm 20:53 Partly Cloudy 79 26.1 72 22.2 79 79 SSW 6 9 29.96 1015 10 16 0.00 0.00
9:53 pm 21:53 Mostly Cloudy 78 25.6 73 22.8 85 85 Calm 29.95 1014 10 16 0.00 0.00
10:53 pm 22:53 Cloudy 78 25.6 73 22.8 85 85 Calm 29.98 1015 10 16 0.00 0.00
11:53 pm 23:53 Mostly Cloudy 77 25 71 21.7 82 82 SSE 6 9 29.99 1016 10 16 0.00 0.00

Powered by AerisWeather